Regional Weather Roundup
Issued by NWS

Home | Current Version | Previous Version | Text Only | Print | Product List | Glossary Off
Versions: 1 2 3 4 5 6 7 8 9 10 11 12 13 14 15 16 17 18 19 20 21 22 23 24 25 26 27 28 29 30 31 32 33 34 35 36 37 38 39 40 41 42 43 44 45 46 47 48 49 50

000
ASUS45 KABQ 011410
RWRNM
WEATHER ROUNDUP FOR NEW MEXICO
NATIONAL WEATHER SERVICE ALBUQUERQUE NM
700 AM MST SUN FEB 01 2015

NOTE: "FAIR" MEANS FEW OR NO CLOUDS BELOW 12,000 FEET AGL WITH NO
       SIGNIFICANT WEATHER OR OBSTRUCTIONS TO VISION.

      THIS PRODUCT IS RELEASED AS TWO VERSIONS.  ONE VERSION NEAR
      THE TOP OF THE HOUR CONTAINING PRELIMINARY DATA FROM ALBUQUERQUE
      AND OTHER STATIONS.  A FINAL VERSION WITH ADDITIONAL DATA IS
      ISSUED ABOUT 10 MINUTES AFTER THE HOUR.

NMZ501-503-504-510>518-011500-
NORTHWEST PLATEAU/NORTHCENTRAL MOUNTAINS

CITY           SKY/WX    TMP DP  RH WIND       PRES   REMARKS
FARMINGTON     FOG       30  29  96 SE5       30.08R VSB 1/2 WCI  25
LOS ALAMOS     PTCLDY    27  23  85 NW3       30.06R
SANTA FE       FOG       26  23  88 N9        30.06R VSB 1/2 WCI  17
TAOS           CLOUDY    18  16  93 NW3       30.06R
ANGEL FIRE     FAIR      11   9  90 CALM        N/A

$$
NMZ402-403-502-505>509-011500-
WESTCENTRAL MOUNTAINS/SOUTHWEST MOUNTAINS

CITY           SKY/WX    TMP DP  RH WIND       PRES   REMARKS
GALLUP         FOG       24  20  84 E3        30.11R VSB 1/4
GRANTS         CLEAR     26  24  92 NW7       30.12R WCI  18
SILVER CITY    CLEAR     37  37 100 NW9       30.06R WCI  31

$$
NMZ407-409-411-412-011500-
SOUTHERN DESERTS

CITY           SKY/WX    TMP DP  RH WIND       PRES   REMARKS
LORDSBURG      CLOUDY    39  39 100 SW5       30.06R
DEMING         FOG       39  39 100 SW6       30.04R VSB 1/4 WCI  35
LAS CRUCES     FOG       39  39  97 NW9       30.04R VSB 1/4 WCI  33
HOLLOMAN AFB   PTCLDY    40  40 100 N9        30.01R WCI  34
ALAMOGORDO     PTCLDY    43  39  87 N9        30.01S
T OR C         CLEAR     35  34  96 N5        30.04R WCI  31

$$
NMZ519>523-011500-
CENTRAL VALLEYS/CENTRAL HIGHLANDS

CITY           SKY/WX    TMP DP  RH WIND       PRES   REMARKS
ALBUQUERQUE    PTCLDY    33  29  85 CALM      30.08R
DOUBLE EAGLE   PTCLDY    30  25  80 NW7       30.08R WCI  23
MORIARTY ARPT  FAIR      29  27  90 W10       30.04R WCI  20
CLINES CORNERS MOCLDY    28  26  92 N7        30.01R WCI  21
BELEN          PTSUNNY   32  30  94 N7        30.08R WCI  25
SOCORRO        FAIR      35  32  91 N6        30.07R WCI  30

$$
NMZ524>526-539-540-011500-
SOUTHCENTRAL MOUNTAINS

CITY           SKY/WX    TMP DP  RH WIND       PRES   REMARKS
RUIDOSO        CLEAR     32  30  93 W12       30.05R WCI  23

$$
NMZ527>531-011500-
NORTHEAST HIGHLANDS/NORTHEAST PLAINS

CITY           SKY/WX    TMP DP  RH WIND       PRES   REMARKS
LAS VEGAS      FOG       27  26  96 CALM      30.03R VSB 1/4
RATON          MOCLDY    26  21  81 NE17      30.02R WCI  13
CLAYTON        CLOUDY    30  26  85 N22       30.05R WCI  17

$$
NMZ532>537-011500-
EASTCENTRAL PLAINS

CITY           SKY/WX    TMP DP  RH WIND       PRES   REMARKS
TUCUMCARI      CLOUDY    36  32  85 NE10      30.05R WCI  28
CANNON AFB     NOT AVBL
CLOVIS AIRPORT PTCLDY    34  30  86 N18       30.03R WCI  23

$$
NMZ028-029-538-011500-
SOUTHEAST PLAINS

CITY           SKY/WX    TMP DP  RH WIND       PRES   REMARKS
ROSWELL        CLEAR     37  35  92 N7        30.01R WCI  32
ARTESIA        FOG       39  39 100 N12       30.02R VSB<1/4 WCI  32
CARLSBAD       LGT RAIN  40  39  97 N10       29.98R VSB 1/4 WCI  33
HOBBS          CLEAR     37  37 100 NW12      29.99R WCI  30


$$


USA.gov is the U.S. government's official web portal to all federal, state and local government web resources and services.